| time (UTC) | temp F | wind direction | speed knots | gust knots | rain 1hr in | rain 24hr in | rain mn in | humidity % | barometer mb |
| 20260906014555 | 70 | 355 | 0.0 | 3.5 | 0.00 | 0.00 | 0.00 | 61 | 1014.5 |
| 20260906013036 | 69 | 350 | 0.0 | 1.7 | 0.00 | 0.00 | 0.00 | 63 | 1014.5 |
| 20260906011551 | 70 | 350 | 0.0 | 2.6 | 0.00 | 0.00 | 0.00 | 61 | 1014.4 |
| 20260906010036 | 70 | 350 | 0.0 | 0.9 | 0.00 | 0.00 | 0.00 | 57 | 1014.5 |
| 20260906004518 | 71 | 345 | 0.0 | 4.3 | 0.00 | 0.00 | 0.00 | 56 | 1014.5 |
| 20260906003100 | 73 | 345 | 0.0 | 4.3 | 0.00 | 0.00 | 0.00 | 53 | 1014.5 |
| 20260906001606 | 75 | 332 | 0.0 | 4.3 | 0.00 | 0.00 | 0.00 | 50 | 1014.5 |
| 20260906000039 | 74 | 33 | 0.9 | 3.5 | 0.00 | 0.00 | 0.00 | 53 | 1014.5 |
| 20260905234536 | 73 | 183 | 0.0 | 4.3 | 0.00 | 0.00 | 0.00 | 54 | 1014.5 |
| 20260905233015 | 73 | 329 | 0.0 | 0.0 | 0.00 | 0.00 | 0.00 | 56 | 1014.6 |
| 20260905231523 | 71 | 339 | 0.0 | 5.2 | 0.00 | 0.00 | 0.00 | 59 | 1014.7 |
| 20260905230107 | 70 | 140 | 0.0 | 0.0 | 0.00 | 0.00 | 0.00 | 60 | 1014.8 |
| 20260905224555 | 71 | 142 | 0.0 | 2.6 | 0.00 | 0.01 | 0.00 | 60 | 1014.9 |
| 20260905223042 | 72 | 142 | 0.9 | 4.3 | 0.00 | 0.01 | 0.00 | 59 | 1015.0 |
| 20260905221540 | 71 | 130 | 0.0 | 4.3 | 0.00 | 0.01 | 0.00 | 63 | 1015.1 |
| 20260905220018 | 68 | 41 | 0.0 | 3.5 | 0.00 | 0.01 | 0.00 | 71 | 1015.2 |
| 20260905214513 | 66 | 232 | 0.0 | 0.0 | 0.00 | 0.01 | 0.00 | 75 | 1015.3 |
| 20260905213058 | 66 | 232 | 0.0 | 0.0 | 0.00 | 0.01 | 0.00 | 71 | 1015.5 |
| 20260905211556 | 68 | 282 | 0.0 | 4.3 | 0.00 | 0.01 | 0.00 | 65 | 1015.6 |
| 20260905210039 | 68 | 350 | 0.0 | 4.3 | 0.00 | 0.01 | 0.00 | 62 | 1015.6 |
| 20260905204537 | 69 | 355 | 0.0 | 5.2 | 0.00 | 0.01 | 0.00 | 62 | 1015.6 |
| 20260905203034 | 70 | 33 | 0.0 | 4.3 | 0.00 | 0.01 | 0.00 | 59 | 1015.7 |
| 20260905201525 | 68 | 34 | 0.0 | 0.9 | 0.00 | 0.01 | 0.00 | 61 | 1015.6 |
| 20260905200058 | 68 | 33 | 0.0 | 4.3 | 0.00 | 0.01 | 0.00 | 61 | 1015.7 |
| 20260905194554 | 68 | 38 | 0.0 | 3.5 | 0.00 | 0.01 | 0.00 | 64 | 1015.8 |
| 20260905193037 | 67 | 38 | 0.0 | 3.5 | 0.00 | 0.01 | 0.00 | 67 | 1016.0 |
| 20260905191533 | 67 | 25 | 0.0 | 5.2 | 0.00 | 0.01 | 0.00 | 69 | 1016.0 |
| 20260905190021 | 66 | 360 | 0.0 | 5.2 | 0.00 | 0.01 | 0.00 | 71 | 1016.2 |
| 20260905184520 | 67 | 331 | 3.5 | 6.1 | 0.00 | 0.01 | 0.00 | 71 | 1016.3 |
| 20260905183018 | 66 | 17 | 0.0 | 7.0 | 0.00 | 0.01 | 0.00 | 73 | 1016.4 |
| 20260905181512 | 65 | 296 | 0.0 | 3.5 | 0.00 | 0.01 | 0.00 | 75 | 1016.4 |
| 20260905180010 | 64 | 259 | 0.9 | 5.2 | 0.00 | 0.01 | 0.00 | 77 | 1016.5 |
| 20260905174509 | 63 | 31 | 0.0 | 0.0 | 0.00 | 0.01 | 0.00 | 80 | 1016.5 |
| 20260905173008 | 61 | 30 | 0.0 | 0.0 | 0.00 | 0.01 | 0.00 | 84 | 1016.5 |
| 20260905171508 | 60 | 30 | 0.0 | 0.0 | 0.00 | 0.01 | 0.00 | 84 | 1016.6 |
| 20260905170103 | 60 | 30 | 0.0 | 0.0 | 0.00 | 0.01 | 0.00 | 87 | 1016.7 |
| 20260905164557 | 59 | 28 | 0.9 | 4.3 | 0.00 | 0.01 | 0.00 | 90 | 1016.6 |
| 20260905163032 | 58 | 88 | 1.7 | 5.2 | 0.00 | 0.01 | 0.00 | 92 | 1016.6 |
| 20260905161531 | 57 | 168 | 0.0 | 0.0 | 0.00 | 0.01 | 0.00 | 95 | 1016.7 |
| 20260905160013 | 57 | 247 | 0.0 | 0.0 | 0.00 | 0.01 | 0.00 | 97 | 1016.7 |
| 20260905154513 | 56 | 236 | 0.0 | 0.0 | 0.00 | 0.01 | 0.00 | 97 | 1016.7 |
| 20260905153055 | 55 | 236 | 0.0 | 0.0 | 0.00 | 0.01 | 0.00 | 97 | 1016.7 |
| 20260905151554 | 54 | 237 | 0.0 | 0.0 | 0.00 | 0.01 | 0.00 | 97 | 1016.7 |
| 20260905150036 | 54 | 237 | 0.0 | 0.0 | 0.00 | 0.01 | 0.00 | 97 | 1016.7 |
| 20260905144537 | 54 | 237 | 0.0 | 0.0 | 0.00 | 0.01 | 0.00 | 97 | 1016.6 |
| 20260905143017 | 54 | 237 | 0.0 | 0.0 | 0.00 | 0.01 | 0.00 | 97 | 1016.5 |
| 20260905141516 | 53 | 237 | 0.0 | 0.0 | 0.00 | 0.01 | 0.00 | 97 | 1016.4 |
| 20260905140112 | 53 | 236 | 0.0 | 0.0 | 0.00 | 0.01 | 0.00 | 97 | 1016.3 |
| 20260905134601 | 53 | 237 | 0.0 | 0.0 | 0.00 | 0.01 | 0.00 | 97 | 1016.3 |
| 20260905133038 | 54 | 236 | 0.0 | 0.0 | 0.00 | 0.01 | 0.00 | 97 | 1016.3 |
| 20260905131540 | 53 | 237 | 0.0 | 0.0 | 0.00 | 0.01 | 0.00 | 97 | 1016.3 |
| 20260905130027 | 53 | 237 | 0.0 | 0.0 | 0.00 | 0.01 | 0.00 | 97 | 1016.2 |
| 20260905124518 | 53 | 237 | 0.0 | 0.0 | 0.00 | 0.01 | 0.00 | 97 | 1016.1 |
| 20260905123106 | 53 | 236 | 0.0 | 0.0 | 0.00 | 0.01 | 0.00 | 97 | 1016.0 |
| 20260905121600 | 53 | 237 | 0.0 | 0.0 | 0.00 | 0.01 | 0.00 | 97 | 1016.0 |
| 20260905120041 | 53 | 236 | 0.0 | 0.0 | 0.00 | 0.01 | 0.00 | 96 | 1015.9 |
| 20260905114545 | 53 | 237 | 0.0 | 0.0 | 0.00 | 0.01 | 0.00 | 96 | 1015.9 |
| 20260905113022 | 53 | 237 | 0.0 | 0.0 | 0.00 | 0.01 | 0.00 | 96 | 1015.8 |
| 20260905111531 | 54 | 237 | 0.0 | 0.0 | 0.00 | 0.01 | 0.00 | 96 | 1015.8 |
| 20260905110003 | 54 | 237 | 0.0 | 0.0 | 0.00 | 0.01 | 0.00 | 96 | 1015.8 |
| 20260905104503 | 54 | 237 | 0.0 | 0.0 | 0.00 | 0.01 | 0.00 | 96 | 1015.8 |
| 20260905103103 | 55 | 237 | 0.0 | 0.0 | 0.00 | 0.01 | 0.00 | 96 | 1016.0 |
| 20260905101545 | 54 | 237 | 0.0 | 0.0 | 0.00 | 0.01 | 0.00 | 96 | 1016.0 |
| 20260905100046 | 54 | 237 | 0.0 | 0.0 | 0.00 | 0.01 | 0.00 | 96 | 1016.1 |
| 20260905094529 | 54 | 236 | 0.0 | 0.0 | 0.00 | 0.01 | 0.00 | 96 | 1016.1 |
| 20260905093028 | 54 | 237 | 0.0 | 0.0 | 0.00 | 0.01 | 0.00 | 96 | 1016.0 |
| 20260905091532 | 54 | 236 | 0.0 | 0.0 | 0.00 | 0.01 | 0.00 | 96 | 1015.8 |
| 20260905090027 | 54 | 237 | 0.0 | 0.0 | 0.00 | 0.01 | 0.00 | 96 | 1015.7 |
| 20260905084525 | 54 | 237 | 0.0 | 0.0 | 0.00 | 0.01 | 0.00 | 96 | 1015.7 |
| 20260905081525 | 54 | 237 | 0.0 | 0.0 | 0.00 | 0.01 | 0.00 | 96 | 1015.6 |
| 20260905080024 | 54 | 237 | 0.0 | 0.0 | 0.00 | 0.01 | 0.00 | 96 | 1015.5 |
| 20260905074525 | 54 | 237 | 0.0 | 0.0 | 0.00 | 0.01 | 0.00 | 96 | 1015.4 |
| 20260905071522 | 54 | 237 | 0.0 | 0.0 | 0.00 | 0.01 | 0.00 | 96 | 1015.3 |
| 20260905070021 | 54 | 237 | 0.0 | 0.0 | 0.00 | 0.01 | 0.00 | 95 | 1015.3 |
| 20260905064522 | 54 | 237 | 0.0 | 0.0 | 0.00 | 0.01 | 0.00 | 95 | 1015.2 |
| 20260905061558 | 54 | 236 | 0.0 | 0.0 | 0.00 | 0.01 | 0.00 | 95 | 1014.9 |
| 20260905060056 | 54 | 236 | 0.0 | 0.0 | 0.00 | 0.01 | 0.00 | 94 | 1014.8 |
| 20260905054539 | 55 | 237 | 0.0 | 0.0 | 0.00 | 0.01 | 0.00 | 94 | 1014.9 |
| 20260905053036 | 55 | 237 | 0.0 | 0.0 | 0.00 | 0.01 | 0.00 | 94 | 1014.8 |
| 20260905051520 | 55 | 236 | 0.0 | 0.0 | 0.00 | 0.01 | 0.00 | 93 | 1014.8 |
| 20260905050016 | 55 | 237 | 0.0 | 0.0 | 0.00 | 0.01 | 0.00 | 93 | 1014.8 |
| 20260905044559 | 55 | 237 | 0.0 | 0.0 | 0.00 | 0.01 | 0.00 | 93 | 1014.9 |
| 20260905043057 | 56 | 236 | 0.0 | 0.0 | 0.00 | 0.01 | 0.00 | 92 | 1014.9 |
| 20260905041548 | 56 | 237 | 0.0 | 0.0 | 0.00 | 0.01 | 0.00 | 91 | 1014.8 |
| 20260905040035 | 57 | 237 | 0.0 | 0.0 | 0.00 | 0.01 | 0.00 | 90 | 1014.7 |
| 20260905034514 | 57 | 237 | 0.0 | 0.0 | 0.00 | 0.01 | 0.00 | 88 | 1014.4 |
| 20260905033011 | 58 | 237 | 0.0 | 0.0 | 0.00 | 0.01 | 0.00 | 86 | 1014.2 |
| 20260905031551 | 59 | 237 | 0.0 | 0.0 | 0.00 | 0.01 | 0.00 | 84 | 1014.1 |
| 20260905030047 | 60 | 237 | 0.0 | 0.0 | 0.00 | 0.01 | 0.00 | 82 | 1013.8 |
| 20260905024529 | 61 | 237 | 0.0 | 0.0 | 0.00 | 0.01 | 0.00 | 81 | 1013.8 |
| 20260905023023 | 62 | 237 | 0.0 | 0.0 | 0.00 | 0.01 | 0.00 | 79 | 1013.9 |
| 20260905021502 | 63 | 237 | 0.0 | 0.0 | 0.00 | 0.01 | 0.00 | 77 | 1013.9 |
| 20260905020100 | 63 | 237 | 0.0 | 0.0 | 0.00 | 0.01 | 0.00 | 76 | 1013.6 |